FW1216 Weather Reports


Display with metric or nautical units.
time (UTC)temp
F
wind
direction
speed
MPH
gust
MPH
rain 1hr
in
rain 24hr
in
rain mn
in
humidity
%
barometer
mb
20200224215258 48 248 4.0 9.0 0.00 0.52 0.17 88 1005.0
20200224214756 48 244 4.0 8.0 0.00 0.52 0.17 88 1005.0
20200224214256 48 303 4.0 9.0 0.00 0.52 0.17 88 1004.9
20200224213755 48 291 4.0 9.0 0.00 0.52 0.17 88 1004.8
20200224213300 49 271 4.0 8.0 0.00 0.52 0.17 88 1004.5
20200224212756 49 277 3.0 8.0 0.00 0.52 0.17 89 1004.3
20200224212300 49 290 2.0 6.0 0.00 0.52 0.17 89 1004.1
20200224211753 49 304 2.0 6.0 0.00 0.52 0.17 89 1003.7
20200224211254 48 22 2.0 6.0 0.00 0.52 0.17 90 1003.7
20200224210753 48 294 3.0 6.0 0.00 0.52 0.17 90 1003.7
20200224210257 48 291 3.0 6.0 0.00 0.52 0.17 90 1003.7
20200224205754 48 281 2.0 6.0 0.00 0.52 0.17 90 1003.7
20200224205254 48 286 3.0 7.0 0.00 0.52 0.17 90 1003.9
20200224204757 48 202 3.0 7.0 0.00 0.52 0.17 90 1003.9
20200224204254 48 310 4.0 8.0 0.00 0.52 0.17 90 1003.8
20200224203754 48 262 3.0 8.0 0.00 0.52 0.17 90 1003.7
20200224203254 48 276 3.0 7.0 0.00 0.52 0.17 91 1003.5
20200224202754 48 293 3.0 6.0 0.00 0.52 0.17 91 1003.4
20200224202253 48 269 3.0 6.0 0.00 0.52 0.17 91 1003.4
20200224201757 48 300 4.0 7.0 0.00 0.52 0.17 91 1003.4
20200224201253 48 265 3.0 7.0 0.00 0.52 0.17 91 1003.1
20200224200753 48 232 4.0 7.0 0.00 0.52 0.17 92 1003.0
20200224200253 48 231 3.0 9.0 0.00 0.52 0.17 92 1003.0
20200224195757 48 291 3.0 9.0 0.00 0.52 0.17 92 1002.9
20200224195257 48 258 4.0 7.0 0.00 0.52 0.17 92 1002.9
20200224194754 48 265 4.0 11.0 0.00 0.52 0.17 93 1003.0
20200224194254 48 299 4.0 11.0 0.00 0.52 0.17 93 1002.9
20200224193754 48 252 4.0 8.0 0.00 0.52 0.17 93 1002.9
20200224193253 48 244 4.0 8.0 0.00 0.52 0.17 93 1002.9
20200224192754 48 234 4.0 8.0 0.00 0.52 0.17 93 1002.9
20200224192254 48 266 3.0 7.0 0.00 0.52 0.17 94 1002.7
20200224191753 48 306 2.0 6.0 0.00 0.52 0.17 94 1002.6
20200224191257 48 269 2.0 5.0 0.00 0.52 0.17 93 1002.5
20200224190751 47 254 3.0 6.0 0.01 0.52 0.17 93 1002.5
20200224190252 47 254 6.0 9.0 0.01 0.52 0.17 93 1002.6
20200224185755 47 264 7.0 13.0 0.01 0.53 0.17 93 1002.7
20200224185251 47 259 8.0 13.0 0.01 0.53 0.17 93 1002.7
20200224184752 47 256 9.0 14.0 0.01 0.53 0.17 92 1002.7
20200224184249 47 269 9.0 14.0 0.01 0.53 0.17 93 1002.7
20200224183747 47 240 9.0 13.0 0.01 0.53 0.17 92 1002.7
20200224183247 47 262 10.0 16.0 0.01 0.53 0.17 92 1002.8
20200224182750 47 253 11.0 16.0 0.01 0.53 0.17 92 1002.8
20200224182256 47 229 11.0 14.0 0.01 0.53 0.17 92 1002.8
20200224181747 47 219 11.0 16.0 0.01 0.53 0.17 92 1002.9
20200224181257 47 250 11.0 16.0 0.01 0.53 0.17 92 1002.8
20200224180747 47 243 10.0 14.0 0.00 0.52 0.16 92 1002.8
20200224180247 47 264 10.0 18.0 0.00 0.52 0.16 91 1002.8
20200224175747 47 257 11.0 18.0 0.00 0.52 0.16 91 1002.8
20200224175247 47 250 11.0 16.0 0.00 0.52 0.16 90 1002.8
20200224174748 48 265 12.0 20.0 0.00 0.52 0.16 90 1002.8
20200224174247 48 261 12.0 20.0 0.00 0.52 0.16 89 1002.9
20200224173747 48 250 12.0 19.0 0.00 0.52 0.16 88 1002.9
20200224173247 49 255 12.0 23.0 0.00 0.52 0.16 88 1002.7
20200224172748 49 260 12.0 23.0 0.00 0.52 0.16 87 1002.7
20200224172252 49 261 11.0 18.0 0.00 0.52 0.16 87 1002.6
20200224171747 49 250 11.0 16.0 0.00 0.52 0.16 87 1002.4
20200224171247 49 232 11.0 20.0 0.00 0.52 0.16 87 1002.2
20200224170747 49 242 11.0 20.0 0.00 0.52 0.16 88 1002.2
20200224170300 49 257 12.0 19.0 0.00 0.52 0.16 87 1002.3
20200224165800 49 265 11.0 15.0 0.00 0.52 0.16 87 1002.2
20200224165255 49 265 12.0 20.0 0.00 0.52 0.16 86 1002.3
20200224164751 50 264 12.0 20.0 0.00 0.52 0.16 86 1002.2
20200224164251 50 268 11.0 18.0 0.00 0.52 0.16 86 1002.1
20200224163807 50 252 11.0 18.0 0.00 0.52 0.16 85 1002.1
20200224163304 50 263 11.0 18.0 0.00 0.52 0.16 84 1002.0
20200224162751 51 242 12.0 19.0 0.00 0.52 0.16 84 1002.0
20200224162259 51 224 11.0 19.0 0.00 0.52 0.16 84 1002.1
20200224161757 51 242 10.0 16.0 0.00 0.52 0.16 84 1002.0
20200224161249 51 231 10.0 16.0 0.00 0.52 0.16 83 1001.9
20200224160754 51 269 10.0 15.0 0.00 0.52 0.16 83 1001.8
20200224160245 51 260 9.0 14.0 0.00 0.52 0.16 83 1001.8
20200224155745 51 254 9.0 14.0 0.00 0.52 0.16 83 1001.9
20200224155246 52 249 10.0 15.0 0.00 0.52 0.16 82 1001.9
20200224154745 52 262 10.0 15.0 0.00 0.52 0.16 82 1001.9
20200224154245 52 257 10.0 15.0 0.00 0.52 0.16 82 1001.9
20200224153745 53 254 10.0 16.0 0.00 0.52 0.16 81 1001.9
20200224153245 53 266 11.0 16.0 0.00 0.52 0.16 81 1001.8
20200224152744 53 248 11.0 16.0 0.00 0.52 0.16 81 1001.7
20200224152243 53 252 11.0 16.0 0.00 0.52 0.16 81 1001.8
20200224151743 53 243 10.0 18.0 0.00 0.52 0.16 81 1001.8
20200224151243 53 255 10.0 18.0 0.00 0.52 0.16 81 1001.7
20200224150743 53 261 10.0 15.0 0.00 0.53 0.16 81 1001.7
20200224150244 53 236 11.0 16.0 0.00 0.53 0.16 81 1001.7
20200224145743 53 251 11.0 22.0 0.00 0.53 0.16 80 1001.7
20200224145243 53 254 11.0 22.0 0.00 0.53 0.16 80 1001.6
20200224144742 54 253 10.0 21.0 0.00 0.53 0.16 81 1001.5
20200224144241 54 238 9.0 16.0 0.00 0.53 0.16 82 1001.5
20200224143741 54 258 8.0 16.0 0.00 0.53 0.16 81 1001.5
20200224143240 54 245 9.0 16.0 0.00 0.53 0.16 82 1001.6
20200224142741 54 270 9.0 19.0 0.00 0.53 0.16 83 1001.5
20200224142241 54 253 9.0 19.0 0.00 0.53 0.16 84 1001.5
20200224141740 54 276 9.0 19.0 0.00 0.53 0.16 85 1001.5
20200224141241 54 258 9.0 19.0 0.00 0.53 0.16 86 1001.4
20200224140741 55 273 8.0 15.0 0.00 0.53 0.16 87 1001.4
20200224140240 55 224 7.0 13.0 0.00 0.53 0.16 88 1001.4
20200224135740 55 234 7.0 13.0 0.00 0.53 0.16 88 1001.3
20200224135238 55 265 6.0 12.0 0.00 0.53 0.16 89 1001.1
20200224134738 55 238 5.0 11.0 0.00 0.53 0.16 89 1001.1
20200224134238 55 264 6.0 13.0 0.00 0.53 0.16 90 1001.1
20200224133740 55 257 7.0 16.0 0.00 0.53 0.16 90 1001.1
20200224133238 55 242 7.0 16.0 0.00 0.53 0.16 91 1000.9
20200224132739 54 168 6.0 14.0 0.00 0.53 0.16 92 1000.7
20200224132239 54 222 4.0 11.0 0.00 0.53 0.16 92 1000.8
20200224131739 54 135 4.0 9.0 0.00 0.53 0.16 93 1000.8
20200224131239 54 215 4.0 14.0 0.00 0.53 0.16 93 1000.8
20200224130739 54 167 5.0 14.0 0.00 0.53 0.16 93 1000.8
20200224130237 54 290 5.0 14.0 0.00 0.53 0.16 94 1000.8
20200224125737 54 232 5.0 10.0 0.00 0.54 0.16 94 1000.9
20200224125236 54 267 4.0 10.0 0.00 0.54 0.16 94 1000.9
20200224124736 53 240 3.0 10.0 0.00 0.54 0.16 94 1000.9
20200224124237 53 298 3.0 9.0 0.00 0.54 0.16 94 1000.8
20200224123737 53 178 3.0 8.0 0.00 0.54 0.16 95 1000.7
20200224123237 53 291 4.0 10.0 0.00 0.55 0.16 95 1000.7
20200224122803 53 153 4.0 10.0 0.00 0.55 0.16 95 1000.4
20200224122254 53 196 3.0 10.0 0.00 0.55 0.16 95 1000.6
20200224121757 53 163 3.0 7.0 0.00 0.55 0.16 95 1000.9
20200224121255 53 194 3.0 8.0 0.00 0.56 0.16 95 1001.0
20200224120752 53 186 4.0 11.0 0.00 0.57 0.16 95 1000.9
20200224120250 53 200 4.0 12.0 0.00 0.57 0.16 95 1000.9
20200224115740 53 101 4.0 12.0 0.00 0.57 0.16 96 1001.1
20200224115245 53 87 3.0 9.0 0.00 0.57 0.16 96 1001.1
20200224114737 53 159 3.0 9.0 0.00 0.58 0.16 96 1001.2
20200224114241 53 199 4.0 9.0 0.00 0.58 0.16 96 1001.3
20200224113742 53 132 4.0 9.0 0.00 0.58 0.16 96 1001.4
20200224113238 52 146 3.0 7.0 0.00 0.58 0.16 96 1001.5
20200224112741 52 90 4.0 9.0 0.00 0.58 0.16 96 1001.6
20200224112240 52 119 4.0 9.0 0.00 0.58 0.16 96 1001.7
20200224111730 52 163 3.0 8.0 0.00 0.58 0.16 96 1001.9
20200224111235 52 173 3.0 7.0 0.00 0.58 0.16 96 1001.8
20200224110731 52 144 3.0 7.0 0.00 0.58 0.16 96 1002.0
20200224110231 52 164 2.0 7.0 0.00 0.58 0.16 96 1002.2
20200224105731 51 117 2.0 7.0 0.00 0.58 0.16 96 1002.3
20200224105229 51 120 2.0 7.0 0.00 0.58 0.16 96 1002.3
20200224104727 51 167 3.0 8.0 0.00 0.58 0.16 96 1002.3
20200224104226 51 94 3.0 8.0 0.01 0.58 0.16 96 1002.4
20200224103726 51 150 2.0 7.0 0.01 0.58 0.16 96 1002.4
20200224103226 51 123 2.0 7.0 0.01 0.58 0.16 96 1002.6
20200224102727 51 139 2.0 7.0 0.01 0.58 0.16 96 1002.6
20200224102226 51 219 2.0 6.0 0.01 0.58 0.16 96 1002.8
20200224101727 51 60 2.0 6.0 0.01 0.58 0.16 96 1002.8
20200224101226 51 145 2.0 6.0 0.01 0.58 0.16 96 1002.9
20200224100727 51 189 2.0 5.0 0.01 0.58 0.16 96 1003.1
20200224100227 51 98 2.0 5.0 0.01 0.58 0.16 96 1003.1
20200224095726 51 78 2.0 6.0 0.01 0.59 0.16 96 1003.5
20200224095226 51 84 2.0 7.0 0.01 0.59 0.16 96 1003.5
20200224094726 51 300 2.0 7.0 0.01 0.59 0.16 96 1003.6
20200224094224 50 99 2.0 6.0 0.01 0.58 0.15 96 1003.9
20200224093724 50 182 2.0 6.0 0.01 0.58 0.15 96 1004.0
20200224093224 50 144 2.0 5.0 0.01 0.58 0.15 96 1004.1
20200224092724 50 84 1.0 5.0 0.01 0.58 0.15 96 1004.3
20200224092222 50 138 1.0 2.0 0.02 0.58 0.15 96 1004.6
20200224091722 50 117 0.0 2.0 0.02 0.58 0.15 96 1004.7
20200224091223 49 93 0.0 2.0 0.02 0.58 0.15 96 1004.8
20200224090722 49 93 1.0 4.0 0.02 0.58 0.15 96 1005.0
20200224090220 49 93 1.0 4.0 0.02 0.58 0.15 96 1005.1
20200224085720 49 87 1.0 9.0 0.03 0.58 0.15 96 1005.2
20200224085221 49 252 1.0 9.0 0.03 0.58 0.15 96 1005.3
20200224084720 49 65 1.0 4.0 0.03 0.58 0.15 96 1005.4
20200224084221 49 66 2.0 5.0 0.03 0.57 0.14 96 1005.3
20200224083720 49 66 1.0 5.0 0.03 0.57 0.14 96 1005.5
20200224083220 48 44 1.0 4.0 0.03 0.57 0.14 96 1005.5
20200224082720 49 46 1.0 4.0 0.04 0.57 0.14 96 1005.7
20200224082220 49 46 1.0 4.0 0.03 0.56 0.13 96 1005.7
20200224081720 49 45 2.0 4.0 0.03 0.56 0.13 96 1005.8
20200224081220 49 40 2.0 5.0 0.04 0.56 0.13 96 1005.9
20200224080720 48 88 2.0 6.0 0.04 0.56 0.13 96 1006.2
20200224080219 49 95 2.0 6.0 0.05 0.56 0.13 96 1006.2
20200224075722 49 80 1.0 5.0 0.04 0.55 0.12 96 1006.4
20200224075219 48 88 2.0 6.0 0.05 0.55 0.12 96 1006.4
20200224074719 48 91 2.0 6.0 0.05 0.55 0.12 96 1006.7
20200224074218 48 57 2.0 5.0 0.05 0.54 0.11 95 1006.7
20200224073718 48 49 2.0 5.0 0.06 0.54 0.11 95 1007.0
20200224073218 48 75 2.0 5.0 0.06 0.54 0.11 95 1007.0
20200224072718 48 76 2.0 5.0 0.06 0.53 0.10 95 1007.2
20200224072218 48 79 3.0 5.0 0.06 0.53 0.10 95 1007.3
20200224071723 48 70 2.0 5.0 0.07 0.53 0.10 95 1007.5
20200224071218 48 76 1.0 4.0 0.07 0.52 0.09 95 1007.6
20200224070719 48 76 1.0 4.0 0.08 0.52 0.09 95 1007.6
20200224070218 48 69 1.0 4.0 0.07 0.51 0.08 95 1008.0
20200224065719 48 69 1.0 4.0 0.08 0.51 0.08 95 1008.0
20200224065219 48 71 1.0 4.0 0.08 0.50 0.07 95 1008.2
20200224064718 48 71 2.0 5.0 0.09 0.50 0.07 95 1008.3
20200224064218 48 71 3.0 5.0 0.09 0.49 0.06 95 1008.4
20200224063747 48 84 2.0 5.0 0.09 0.48 0.06 95 1008.3
20200224063239 48 63 1.0 4.0 0.10 0.48 0.05 95 1008.4
20200224062737 48 74 2.0 5.0 0.10 0.47 0.04 95 1008.5
20200224062238 48 78 3.0 6.0 0.11 0.47 0.04 95 1008.5
20200224061735 48 90 2.0 6.0 0.11 0.46 0.03 95 1008.5
20200224061238 48 65 2.0 4.0 0.11 0.45 0.02 95 1008.6
20200224060744 48 60 2.0 4.0 0.11 0.44 0.01 95 1008.6
20200224060228 48 74 2.0 4.0 0.12 0.44 0.01 95 1008.6
20200224055734 48 94 2.0 6.0 0.12 0.43 0.43 95 1008.7
20200224055214 48 94 3.0 6.0 0.12 0.42 0.42 95 1008.7
20200224054718 48 76 3.0 6.0 0.12 0.41 0.41 95 1008.8
20200224054214 48 69 3.0 6.0 0.12 0.40 0.40 95 1008.8
20200224053714 48 52 4.0 6.0 0.11 0.39 0.39 95 1008.9
20200224053214 48 71 4.0 7.0 0.10 0.38 0.38 95 1008.9
20200224052714 48 80 4.0 7.0 0.09 0.37 0.37 95 1009.1
20200224052212 48 99 5.0 7.0 0.08 0.36 0.36 95 1009.3
20200224051710 48 93 5.0 8.0 0.07 0.35 0.35 95 1009.2
20200224051210 48 92 5.0 8.0 0.06 0.34 0.34 95 1009.4
20200224050717 48 89 4.0 7.0 0.05 0.33 0.33 95 1009.5
20200224050210 48 82 4.0 7.0 0.05 0.32 0.32 95 1009.5
20200224045708 48 92 4.0 7.0 0.04 0.31 0.31 95 1009.6
20200224045208 48 72 3.0 6.0 0.04 0.30 0.30 94 1009.6
20200224044708 48 92 2.0 5.0 0.03 0.29 0.29 94 1009.9
20200224044207 48 94 3.0 5.0 0.03 0.28 0.28 94 1010.0
20200224043706 48 78 3.0 5.0 0.04 0.28 0.28 94 1010.1
20200224043206 48 81 3.0 5.0 0.05 0.28 0.28 94 1010.3
20200224042706 48 89 3.0 5.0 0.05 0.28 0.28 94 1010.3
20200224042205 48 89 2.0 5.0 0.05 0.28 0.28 94 1010.5
20200224041704 48 88 3.0 7.0 0.05 0.28 0.28 94 1010.6
20200224041204 48 87 3.0 7.0 0.05 0.28 0.28 94 1010.6
20200224040703 48 93 2.0 6.0 0.05 0.28 0.28 94 1010.7
20200224040204 48 132 1.0 4.0 0.04 0.27 0.27 94 1010.8
20200224035704 48 131 2.0 5.0 0.04 0.27 0.27 94 1010.7
20200224035203 48 90 2.0 5.0 0.03 0.26 0.26 94 1010.7
20200224034702 48 80 3.0 6.0 0.04 0.26 0.26 94 1010.8
20200224034216 48 86 3.0 6.0 0.03 0.25 0.25 94 1010.8
20200224033714 48 89 2.0 6.0 0.02 0.24 0.24 94 1010.9
20200224033226 48 84 2.0 6.0 0.01 0.23 0.23 94 1010.9
20200224032724 48 87 2.0 5.0 0.01 0.23 0.23 94 1011.0
20200224032212 48 90 3.0 6.0 0.01 0.23 0.23 94 1011.0
20200224031716 48 86 3.0 6.0 0.01 0.23 0.23 94 1011.1
20200224031206 48 94 3.0 6.0 0.02 0.23 0.23 94 1011.2
20200224030703 48 80 2.0 6.0 0.03 0.23 0.23 94 1011.3
20200224030205 48 100 3.0 6.0 0.04 0.23 0.23 94 1011.3
20200224025710 48 105 3.0 6.0 0.05 0.23 0.23 94 1011.4
20200224025210 49 82 2.0 6.0 0.05 0.23 0.23 94 1011.4
20200224024702 49 66 2.0 6.0 0.04 0.22 0.22 94 1011.4
20200224024158 48 89 4.0 7.0 0.04 0.22 0.22 94 1011.4
20200224023658 49 113 4.0 7.0 0.04 0.22 0.22 94 1011.4
20200224023207 49 80 3.0 6.0 0.05 0.22 0.22 94 1011.5
20200224022710 49 82 3.0 7.0 0.05 0.22 0.22 94 1011.7
20200224022157 49 78 3.0 7.0 0.06 0.22 0.22 94 1011.9
20200224021657 49 91 3.0 6.0 0.07 0.22 0.22 94 1011.9
20200224021213 48 88 3.0 6.0 0.06 0.21 0.21 94 1012.0
20200224020653 49 90 3.0 7.0 0.05 0.20 0.20 94 1011.9
20200224020155 49 85 3.0 7.0 0.04 0.19 0.19 94 1012.0
20200224015652 49 78 3.0 6.0 0.03 0.18 0.18 94 1012.1
20200224015153 49 96 3.0 6.0 0.03 0.18 0.18 94 1012.4
20200224014652 49 89 3.0 5.0 0.03 0.18 0.18 93 1012.5
20200224014152 49 85 3.0 5.0 0.03 0.18 0.18 93 1012.6
20200224013652 49 80 3.0 6.0 0.03 0.18 0.18 93 1012.7
20200224013152 49 90 3.0 6.0 0.03 0.17 0.18 93 1012.7
20200224012652 49 84 3.0 5.0 0.03 0.17 0.17 93 1012.9
20200224012152 49 103 2.0 5.0 0.03 0.16 0.16 93 1012.9
20200224011652 49 96 2.0 6.0 0.02 0.15 0.15 93 1012.9
20200224011151 49 73 3.0 6.0 0.02 0.15 0.15 93 1012.9
20200224010650 49 101 3.0 5.0 0.02 0.15 0.15 93 1012.9
20200224010150 49 93 3.0 6.0 0.02 0.15 0.15 93 1013.0
20200224005650 49 117 3.0 6.0 0.02 0.15 0.15 93 1013.1
20200224005150 49 79 3.0 6.0 0.02 0.15 0.15 93 1013.1
20200224004650 49 64 3.0 7.0 0.03 0.15 0.15 92 1013.2
20200224004150 49 103 4.0 7.0 0.03 0.15 0.15 92 1013.2
20200224003650 49 90 3.0 6.0 0.04 0.15 0.15 92 1013.2
20200224003153 49 78 2.0 5.0 0.03 0.14 0.14 92 1013.4
20200224002648 49 95 3.0 6.0 0.03 0.14 0.14 92 1013.5
20200224002148 49 95 2.0 6.0 0.02 0.13 0.14 92 1013.5
20200224001648 49 100 2.0 5.0 0.03 0.13 0.13 92 1013.5
20200224001208 49 78 2.0 4.0 0.03 0.13 0.13 92 1013.6
20200224000709 49 55 2.0 5.0 0.03 0.13 0.13 92 1013.6
20200224000209 49 137 2.0 5.0 0.03 0.13 0.13 91 1013.6
20200223235656 49 107 2.0 6.0 0.03 0.13 0.13 91 1013.5
20200223235209 49 88 1.0 6.0 0.03 0.13 0.13 91 1013.5
20200223234653 49 117 2.0 4.0 0.02 0.12 0.12 91 1013.5
20200223234155 49 113 2.0 5.0 0.02 0.12 0.12 91 1013.7
20200223233706 50 85 2.0 5.0 0.01 0.11 0.11 91 1013.5
20200223233201 50 84 2.0 4.0 0.01 0.11 0.11 91 1013.8
20200223232648 50 86 2.0 6.0 0.02 0.11 0.11 90 1013.8
20200223232150 50 101 2.0 6.0 0.02 0.11 0.11 90 1013.8
20200223231648 50 58 2.0 5.0 0.02 0.10 0.10 90 1013.9
20200223231146 50 83 2.0 5.0 0.02 0.10 0.10 90 1014.0
20200223230650 50 76 2.0 5.0 0.02 0.10 0.10 90 1014.0
20200223230146 50 84 2.0 5.0 0.02 0.10 0.10 90 1014.1
20200223225644 50 93 2.0 5.0 0.02 0.10 0.10 90 1014.2
20200223225156 50 69 3.0 8.0 0.02 0.10 0.10 89 1014.3
20200223224644 50 112 4.0 8.0 0.02 0.10 0.10 89 1014.3
20200223224155 50 112 3.0 6.0 0.02 0.10 0.10 89 1014.3
20200223223641 51 83 2.0 5.0 0.02 0.10 0.10 88 1014.2
20200223223142 51 169 2.0 4.0 0.02 0.10 0.10 87 1014.4
20200223222641 51 117 2.0 4.0 0.01 0.09 0.09 86 1014.4
20200223222142 51 117 2.0 5.0 0.01 0.09 0.09 86 1014.7
20200223221639 51 100 3.0 5.0 0.00 0.08 0.08 85 1014.7
20200223221142 51 103 2.0 5.0 0.00 0.08 0.08 85 1014.9
20200223220639 52 98 3.0 7.0 0.00 0.08 0.08 85 1014.8
20200223220140 52 140 2.0 7.0 0.00 0.08 0.08 84 1014.9
20200223215637 52 142 2.0 5.0 0.00 0.08 0.08 83 1015.0